Date,TemperatureHighF,TemperatureAvgF,TemperatureLowF,DewpointHighF,DewpointAvgF,DewpointLowF,HumidityHigh,HumidityAvg,HumidityLow,PressureMaxIn,PressureMinIn,WindSpeedMaxMPH,WindSpeedAvgMPH,GustSpeedMaxMPH,PrecipitationSumIn
2013-2-1,31,26,16,19,9,1,63,51,37,30.02,29.41,9,2,16,0.00
2013-2-2,26,20,12,19,9,1,88,62,42,30.19,30.02,12,2,14,0.00
2013-2-3,27,24,22,21,19,16,93,79,66,30.05,29.66,8,4,14,0.00
2013-2-4,29,23,17,16,9,-3,80,57,40,29.85,29.61,10,2,18,0.00
2013-2-5,24,18,11,9,0,-5,66,47,29,30.02,29.85,7,1,11,0.00
2013-2-6,37,26,18,27,15,-5,88,66,34,30.26,29.90,13,2,17,0.00
2013-2-7,18,13,9,-2,-6,-10,56,42,28,30.59,30.27,8,2,10,0.00
2013-2-8,22,15,11,20,11,-3,94,84,54,30.59,29.87,12,6,18,0.00
2013-2-9,18,14,11,15,11,9,92,88,73,30.08,29.64,18,10,30,0.00
2013-2-10,35,22,14,15,8,2,89,56,31,30.34,30.08,10,3,13,0.00
2013-2-11,41,27,10,41,25,8,98,92,76,30.34,29.55,13,2,19,0.58
2013-2-12,45,37,32,37,32,29,98,84,63,29.75,29.48,5,1,11,0.01
2013-2-13,44,35,29,31,28,25,90,75,48,29.79,29.71,10,1,14,0.00
2013-2-14,40,33,24,26,22,18,89,67,43,29.99,29.70,6,2,10,0.00
2013-2-15,42,33,22,37,30,21,96,90,82,30.00,29.90,16,4,24,0.00
2013-2-16,36,32,26,33,30,24,97,93,86,29.93,29.74,7,2,16,0.00
2013-2-17,26,22,18,24,16,7,92,78,58,29.73,29.09,13,7,24,0.00
2013-2-18,30,22,13,9,5,1,61,49,40,30.00,29.39,11,3,21,0.00
2013-2-19,43,31,19,42,19,0,96,62,34,30.09,29.61,13,4,20,0.41
2013-2-20,44,36,28,44,29,18,98,76,56,29.61,29.40,13,3,21,0.29
2013-2-21,33,28,23,27,18,11,83,68,52,30.11,29.61,9,3,14,0.00
2013-2-22,38,32,25,27,23,21,88,70,50,30.36,30.11,9,3,12,0.00
2013-2-23,36,31,25,31,28,22,92,85,78,30.35,30.04,12,3,16,0.00
2013-2-24,32,30,28,31,29,27,97,96,92,30.04,29.78,9,4,10,0.00
2013-2-25,38,30,24,29,24,18,95,78,45,30.23,29.88,9,2,11,0.10
2013-2-26,42,32,26,34,28,24,96,85,58,30.35,30.24,8,1,10,0.00
2013-2-27,39,34,28,33,31,26,97,89,74,30.26,29.69,13,5,29,0.06
2013-2-28,42,38,32,41,38,32,98,97,96,29.68,29.52,10,4,16,0.51